Year,Month,Day,Hour,Minute,Value (Times are PST for windgust in km/hr)
2015,08,29,00,16,4.80
2015,08,29,00,17,4.80
2015,08,29,00,18,4.80
2015,08,29,00,19,4.80
2015,08,29,00,20,3.20
2015,08,29,00,22,1.60
2015,08,29,00,23,1.60
2015,08,29,00,24,4.80
2015,08,29,00,25,6.40
2015,08,29,00,26,6.40
2015,08,29,00,27,8.10
2015,08,29,00,28,8.10
2015,08,29,00,29,1.60
2015,08,29,00,30,1.60
2015,08,29,00,32,3.20
2015,08,29,00,33,3.20
2015,08,29,00,34,3.20
2015,08,29,00,35,6.40
2015,08,29,00,36,4.80
2015,08,29,00,37,6.40
2015,08,29,00,38,4.80
2015,08,29,00,39,3.20
2015,08,29,00,40,3.20
2015,08,29,00,41,3.20
2015,08,29,00,42,3.20
2015,08,29,00,44,4.80
2015,08,29,00,45,4.80
2015,08,29,00,46,6.40
2015,08,29,00,47,6.40
2015,08,29,00,48,9.60
2015,08,29,00,49,6.40
2015,08,29,00,50,6.40
2015,08,29,00,51,6.40
2015,08,29,00,52,8.10
2015,08,29,00,53,4.80
2015,08,29,00,54,4.80
2015,08,29,00,55,4.80
2015,08,29,00,56,3.20
2015,08,29,00,57,3.20
2015,08,29,00,58,4.80
2015,08,29,00,59,4.80
2015,08,29,01,00,6.40
2015,08,29,01,01,6.40
2015,08,29,01,02,4.80
2015,08,29,01,03,6.40
2015,08,29,01,04,4.80
2015,08,29,01,05,4.80
2015,08,29,01,06,3.20
2015,08,29,01,07,3.20
2015,08,29,01,08,4.80
2015,08,29,01,09,3.20
2015,08,29,01,10,6.40
2015,08,29,01,11,3.20
2015,08,29,01,12,3.20
2015,08,29,01,13,3.20
2015,08,29,01,14,3.20
2015,08,29,01,15,3.20
2015,08,29,01,16,4.80
2015,08,29,01,17,4.80
2015,08,29,01,18,4.80
2015,08,29,01,19,4.80
2015,08,29,01,20,8.10
2015,08,29,01,21,9.60
2015,08,29,01,22,4.80
2015,08,29,01,23,3.20
2015,08,29,01,24,4.80
2015,08,29,01,25,3.20
2015,08,29,01,26,3.20
2015,08,29,01,27,3.20
2015,08,29,01,28,3.20
2015,08,29,01,29,4.80
2015,08,29,01,30,4.80
2015,08,29,01,31,4.80
2015,08,29,01,32,1.60
2015,08,29,01,33,3.20
2015,08,29,01,34,4.80
2015,08,29,01,35,3.20
2015,08,29,01,36,3.20
2015,08,29,01,37,3.20
2015,08,29,01,38,3.20
2015,08,29,01,39,1.60
2015,08,29,01,40,1.60
2015,08,29,01,41,1.60
2015,08,29,01,44,1.60
2015,08,29,01,45,1.60
2015,08,29,01,47,3.20
2015,08,29,01,48,3.20
2015,08,29,01,49,4.80
2015,08,29,01,50,6.40
2015,08,29,01,51,6.40
2015,08,29,01,52,4.80
2015,08,29,01,53,3.20
2015,08,29,01,54,3.20
2015,08,29,01,55,3.20
2015,08,29,01,56,3.20
2015,08,29,01,57,3.20
2015,08,29,01,58,4.80
2015,08,29,01,59,6.40
2015,08,29,02,00,4.80
2015,08,29,02,01,3.20
2015,08,29,02,02,4.80
2015,08,29,02,03,3.20
2015,08,29,02,04,3.20
2015,08,29,02,05,1.60
2015,08,29,02,06,3.20
2015,08,29,02,07,3.20
2015,08,29,02,08,3.20
2015,08,29,02,09,3.20
2015,08,29,02,10,1.60
2015,08,29,02,11,1.60
2015,08,29,02,12,1.60
2015,08,29,02,13,1.60
2015,08,29,02,14,1.60
2015,08,29,02,15,4.80
2015,08,29,02,16,4.80
2015,08,29,02,17,3.20
2015,08,29,02,18,3.20
2015,08,29,02,19,3.20
2015,08,29,02,20,3.20
2015,08,29,02,21,4.80
2015,08,29,02,22,3.20
2015,08,29,02,23,3.20
2015,08,29,02,24,1.60
2015,08,29,02,25,1.60
2015,08,29,02,27,3.20
2015,08,29,02,28,3.20
2015,08,29,02,29,3.20
2015,08,29,02,30,1.60
2015,08,29,02,31,3.20
2015,08,29,02,32,3.20
2015,08,29,02,33,3.20
2015,08,29,02,34,3.20
2015,08,29,02,35,3.20
2015,08,29,02,36,4.80
2015,08,29,02,37,4.80
2015,08,29,02,38,3.20
2015,08,29,02,39,3.20
2015,08,29,02,40,3.20
2015,08,29,02,41,3.20
2015,08,29,02,42,3.20
2015,08,29,02,43,6.40
2015,08,29,02,44,6.40
2015,08,29,02,45,6.40
2015,08,29,02,46,6.40
2015,08,29,02,47,4.80
2015,08,29,02,48,4.80
2015,08,29,02,49,4.80
2015,08,29,02,50,4.80
2015,08,29,02,51,4.80
2015,08,29,02,52,6.40
2015,08,29,02,53,4.80
2015,08,29,02,54,6.40
2015,08,29,02,55,3.20
2015,08,29,02,56,6.40
2015,08,29,02,57,6.40
2015,08,29,02,58,8.10
2015,08,29,02,59,4.80
2015,08,29,03,00,3.20
2015,08,29,03,01,4.80
2015,08,29,03,02,6.40
2015,08,29,03,03,6.40
2015,08,29,03,04,3.20
2015,08,29,03,05,6.40
2015,08,29,03,06,6.40
2015,08,29,03,07,6.40
2015,08,29,03,08,9.60
2015,08,29,03,09,8.10
2015,08,29,03,10,4.80
2015,08,29,03,11,3.20
2015,08,29,03,12,4.80
2015,08,29,03,13,6.40
2015,08,29,03,14,3.20
2015,08,29,03,15,3.20
2015,08,29,03,16,4.80
2015,08,29,03,17,1.60
2015,08,29,03,18,1.60
2015,08,29,03,19,3.20
2015,08,29,03,20,1.60
2015,08,29,03,21,1.60
2015,08,29,03,22,1.60
2015,08,29,03,24,1.60
2015,08,29,03,25,1.60
2015,08,29,03,26,1.60
2015,08,29,03,27,1.60
2015,08,29,03,28,6.40
2015,08,29,03,29,3.20
2015,08,29,03,30,1.60
2015,08,29,03,31,3.20
2015,08,29,03,32,3.20
2015,08,29,03,33,3.20
2015,08,29,03,34,4.80
2015,08,29,03,35,3.20
2015,08,29,03,36,4.80
2015,08,29,03,37,4.80
2015,08,29,03,38,4.80
2015,08,29,03,39,1.60
2015,08,29,03,40,4.80
2015,08,29,03,41,4.80
2015,08,29,03,42,4.80
2015,08,29,03,43,4.80
2015,08,29,03,44,6.40
2015,08,29,03,45,6.40
2015,08,29,03,46,3.20
2015,08,29,03,47,3.20
2015,08,29,03,48,4.80
2015,08,29,03,49,6.40
2015,08,29,03,50,3.20
2015,08,29,03,51,3.20
2015,08,29,03,52,4.80
2015,08,29,03,53,4.80
2015,08,29,03,54,4.80
2015,08,29,03,56,1.60
2015,08,29,03,57,3.20
2015,08,29,03,58,4.80
2015,08,29,03,59,4.80
2015,08,29,04,00,6.40
2015,08,29,04,01,4.80
2015,08,29,04,02,6.40
2015,08,29,04,03,4.80
2015,08,29,04,04,4.80
2015,08,29,04,05,4.80
2015,08,29,04,06,4.80
2015,08,29,04,07,6.40
2015,08,29,04,08,8.10
2015,08,29,04,09,8.10
2015,08,29,04,10,4.80
2015,08,29,04,11,4.80
2015,08,29,04,12,6.40
2015,08,29,04,13,3.20
2015,08,29,04,14,6.40
2015,08,29,04,15,4.80
2015,08,29,04,16,4.80
2015,08,29,04,17,8.10
2015,08,29,04,18,4.80
2015,08,29,04,19,4.80
2015,08,29,04,20,6.40
2015,08,29,04,21,4.80
2015,08,29,04,22,8.10
2015,08,29,04,23,8.10
2015,08,29,04,24,4.80
2015,08,29,04,25,3.20
2015,08,29,04,26,4.80
2015,08,29,04,27,3.20
2015,08,29,04,28,3.20
2015,08,29,04,29,4.80
2015,08,29,04,30,4.80
2015,08,29,04,31,4.80
2015,08,29,04,32,4.80
2015,08,29,04,33,4.80
2015,08,29,04,34,8.10
2015,08,29,04,35,6.40
2015,08,29,04,36,4.80
2015,08,29,04,37,4.80
2015,08,29,04,38,3.20
2015,08,29,04,39,4.80
2015,08,29,04,40,4.80
2015,08,29,04,41,6.40
2015,08,29,04,42,8.10
2015,08,29,04,43,9.60
2015,08,29,04,44,4.80
2015,08,29,04,45,8.10
2015,08,29,04,46,4.80
2015,08,29,04,47,8.10
2015,08,29,04,48,3.20
2015,08,29,04,49,3.20
2015,08,29,04,50,6.40
2015,08,29,04,51,4.80
2015,08,29,04,52,4.80
2015,08,29,04,53,6.40
2015,08,29,04,54,4.80
2015,08,29,04,55,4.80
2015,08,29,04,56,6.40
2015,08,29,04,57,6.40
2015,08,29,04,58,4.80
2015,08,29,04,59,6.40
2015,08,29,05,00,4.80
2015,08,29,05,01,4.80
2015,08,29,05,02,6.40
2015,08,29,05,03,3.20
2015,08,29,05,04,9.60
2015,08,29,05,05,9.60
2015,08,29,05,06,4.80
2015,08,29,05,07,1.60
2015,08,29,05,08,3.20
2015,08,29,05,09,3.20
2015,08,29,05,10,3.20
2015,08,29,05,11,3.20
2015,08,29,05,12,4.80
2015,08,29,05,13,6.40
2015,08,29,05,14,4.80
2015,08,29,05,15,4.80
2015,08,29,05,16,3.20
2015,08,29,05,17,3.20
2015,08,29,05,18,3.20
2015,08,29,05,19,1.60
2015,08,29,05,20,4.80
2015,08,29,05,21,1.60
2015,08,29,05,22,3.20
2015,08,29,05,23,1.60
2015,08,29,05,24,3.20
2015,08,29,05,25,3.20
2015,08,29,05,26,4.80
2015,08,29,05,27,8.10
2015,08,29,05,28,3.20
2015,08,29,05,29,6.40
2015,08,29,05,30,4.80
2015,08,29,05,31,6.40
2015,08,29,05,32,4.80
2015,08,29,05,33,8.10
2015,08,29,05,34,4.80
2015,08,29,05,35,4.80
2015,08,29,05,36,3.20
2015,08,29,05,37,3.20
2015,08,29,05,38,4.80
2015,08,29,05,39,1.60
2015,08,29,05,44,3.20
2015,08,29,05,45,3.20
2015,08,29,05,46,4.80
2015,08,29,05,47,3.20
2015,08,29,05,49,1.60
2015,08,29,05,50,3.20
2015,08,29,05,51,4.80
2015,08,29,05,52,4.80
2015,08,29,05,53,4.80
2015,08,29,05,54,3.20
2015,08,29,05,55,4.80
2015,08,29,05,56,8.10
2015,08,29,05,57,4.80
2015,08,29,05,58,6.40
2015,08,29,05,59,3.20
2015,08,29,06,00,3.20
2015,08,29,06,01,3.20
2015,08,29,06,02,1.60
2015,08,29,06,03,9.60
2015,08,29,06,04,8.10
2015,08,29,06,05,4.80
2015,08,29,06,06,3.20
2015,08,29,06,07,3.20
2015,08,29,06,08,1.60
2015,08,29,06,09,1.60
2015,08,29,06,10,1.60
2015,08,29,06,11,1.60
2015,08,29,06,13,3.20
2015,08,29,06,14,1.60
2015,08,29,06,17,1.60
2015,08,29,06,18,1.60
2015,08,29,06,19,1.60
2015,08,29,06,20,1.60
2015,08,29,06,25,4.80
2015,08,29,06,26,4.80
2015,08,29,06,27,4.80
2015,08,29,06,28,1.60
2015,08,29,06,30,1.60
2015,08,29,06,31,1.60
2015,08,29,06,33,1.60
2015,08,29,06,34,3.20
2015,08,29,06,35,3.20
2015,08,29,06,36,3.20
2015,08,29,06,37,4.80
2015,08,29,06,38,3.20
2015,08,29,06,39,3.20
2015,08,29,06,42,6.40
2015,08,29,06,43,6.40
2015,08,29,06,44,4.80
2015,08,29,06,45,3.20
2015,08,29,06,46,4.80
2015,08,29,06,47,3.20
2015,08,29,06,48,6.40
2015,08,29,06,49,8.10
2015,08,29,06,50,6.40
2015,08,29,06,53,3.20
2015,08,29,06,54,9.60
2015,08,29,06,55,6.40
2015,08,29,06,56,3.20
2015,08,29,06,57,3.20
2015,08,29,06,58,8.10
2015,08,29,06,59,3.20
2015,08,29,07,00,6.40
2015,08,29,07,01,9.60
2015,08,29,07,02,8.10
2015,08,29,07,03,6.40
2015,08,29,07,04,4.80
2015,08,29,07,05,8.10
2015,08,29,07,06,9.60
2015,08,29,07,07,3.20
2015,08,29,07,08,14.50
2015,08,29,07,09,12.90
2015,08,29,07,10,11.30
2015,08,29,07,11,4.80
2015,08,29,07,12,9.60
2015,08,29,07,13,8.10
2015,08,29,07,14,14.50
2015,08,29,07,15,17.70
2015,08,29,07,16,20.90
2015,08,29,07,17,6.40
2015,08,29,07,18,14.50
2015,08,29,07,19,16.10
2015,08,29,07,20,16.10
2015,08,29,07,21,6.40
2015,08,29,07,22,4.80
2015,08,29,07,23,20.90
2015,08,29,07,24,8.10
2015,08,29,07,25,4.80
2015,08,29,07,26,11.30
2015,08,29,07,27,6.40
2015,08,29,07,28,9.60
2015,08,29,07,29,3.20
2015,08,29,07,30,1.60
2015,08,29,07,31,8.10
2015,08,29,07,32,11.30
2015,08,29,07,33,6.40
2015,08,29,07,34,11.30
2015,08,29,07,35,11.30
2015,08,29,07,36,9.60
2015,08,29,07,37,12.90
2015,08,29,07,38,8.10
2015,08,29,07,39,14.50
2015,08,29,07,40,19.30
2015,08,29,07,41,9.60
2015,08,29,07,42,9.60
2015,08,29,07,43,4.80
2015,08,29,07,44,14.50
2015,08,29,07,45,11.30
2015,08,29,07,46,4.80
2015,08,29,07,47,11.30
2015,08,29,07,48,6.40
2015,08,29,07,49,11.30
2015,08,29,07,50,8.10
2015,08,29,07,51,4.80
2015,08,29,07,52,4.80
2015,08,29,07,53,9.60
2015,08,29,07,54,9.60
2015,08,29,07,55,4.80
2015,08,29,07,56,6.40
2015,08,29,07,57,6.40
2015,08,29,07,58,4.80
2015,08,29,07,59,9.60
2015,08,29,08,00,6.40
2015,08,29,08,01,6.40
2015,08,29,08,02,8.10
2015,08,29,08,03,3.20
2015,08,29,08,04,3.20
2015,08,29,08,05,3.20
2015,08,29,08,08,4.80
2015,08,29,08,09,1.60
2015,08,29,08,10,4.80
2015,08,29,08,11,9.60
2015,08,29,08,12,9.60
2015,08,29,08,13,4.80
2015,08,29,08,14,1.60
2015,08,29,08,15,4.80
2015,08,29,08,16,6.40
2015,08,29,08,17,6.40
2015,08,29,08,18,8.10
2015,08,29,08,19,8.10
2015,08,29,08,20,4.80
2015,08,29,08,21,3.20
2015,08,29,08,22,9.60
2015,08,29,08,23,8.10
2015,08,29,08,24,17.70
2015,08,29,08,25,4.80
2015,08,29,08,26,9.60
2015,08,29,08,27,14.50
2015,08,29,08,28,8.10
2015,08,29,08,29,4.80
2015,08,29,08,30,8.10
2015,08,29,08,31,11.30
2015,08,29,08,32,9.60
2015,08,29,08,33,3.20
2015,08,29,08,34,3.20
2015,08,29,08,35,3.20
2015,08,29,08,36,6.40
2015,08,29,08,37,9.60
2015,08,29,08,38,14.50
2015,08,29,08,39,4.80
2015,08,29,08,40,4.80
2015,08,29,08,41,8.10
2015,08,29,08,42,14.50
2015,08,29,08,43,9.60
2015,08,29,08,44,4.80
2015,08,29,08,45,6.40
2015,08,29,08,46,4.80
2015,08,29,08,47,8.10
2015,08,29,08,48,8.10
2015,08,29,08,49,8.10
2015,08,29,08,50,16.10
2015,08,29,08,51,19.30
2015,08,29,08,52,16.10
2015,08,29,08,53,8.10
2015,08,29,08,54,25.70
2015,08,29,08,55,20.90
2015,08,29,08,56,20.90
2015,08,29,08,57,14.50
2015,08,29,08,58,17.70
2015,08,29,08,59,16.10
2015,08,29,09,00,14.50
2015,08,29,09,01,17.70
2015,08,29,09,02,14.50
2015,08,29,09,03,11.30
2015,08,29,09,04,38.60
2015,08,29,09,05,24.20
2015,08,29,09,06,17.70
2015,08,29,09,07,19.30
2015,08,29,09,08,22.50
2015,08,29,09,09,14.50
2015,08,29,09,10,16.10
2015,08,29,09,11,17.70
2015,08,29,09,12,27.40
2015,08,29,09,13,24.20
2015,08,29,09,14,20.90
2015,08,29,09,15,19.30
2015,08,29,09,16,19.30
2015,08,29,09,17,20.90
2015,08,29,09,18,24.20
2015,08,29,09,19,16.10
2015,08,29,09,20,14.50
2015,08,29,09,21,19.30
2015,08,29,09,22,22.50
2015,08,29,09,23,20.90
2015,08,29,09,24,19.30
2015,08,29,09,25,19.30
2015,08,29,09,26,16.10
2015,08,29,09,27,17.70
2015,08,29,09,28,22.50
2015,08,29,09,29,14.50
2015,08,29,09,30,24.20
2015,08,29,09,31,16.10
2015,08,29,09,32,27.40
2015,08,29,09,33,27.40
2015,08,29,09,34,22.50
2015,08,29,09,35,19.30
2015,08,29,09,36,17.70
2015,08,29,09,37,17.70
2015,08,29,09,38,22.50
2015,08,29,09,39,19.30
2015,08,29,09,40,17.70
2015,08,29,09,41,24.20
2015,08,29,09,42,16.10
2015,08,29,09,43,20.90
2015,08,29,09,44,17.70
2015,08,29,09,45,20.90
2015,08,29,09,46,22.50
2015,08,29,09,47,20.90
2015,08,29,09,48,20.90
2015,08,29,09,49,9.60
2015,08,29,09,50,22.50
2015,08,29,09,51,20.90
2015,08,29,09,52,17.70
2015,08,29,09,53,27.40
2015,08,29,09,54,22.50
2015,08,29,09,55,20.90
2015,08,29,09,56,19.30
2015,08,29,09,57,24.20
2015,08,29,09,58,14.50
2015,08,29,09,59,19.30
2015,08,29,10,00,16.10
2015,08,29,10,01,19.30
2015,08,29,10,02,24.20
2015,08,29,10,03,30.60
2015,08,29,10,04,20.90
2015,08,29,10,05,20.90
2015,08,29,10,06,25.70
2015,08,29,10,07,17.70
2015,08,29,10,08,25.70
2015,08,29,10,09,25.70
2015,08,29,10,10,29.00
2015,08,29,10,11,22.50
2015,08,29,10,12,29.00
2015,08,29,10,13,32.20
2015,08,29,10,14,22.50
2015,08,29,10,15,29.00
2015,08,29,10,16,22.50
2015,08,29,10,17,22.50
2015,08,29,10,18,24.20
2015,08,29,10,19,24.20
2015,08,29,10,20,17.70
2015,08,29,10,21,20.90
2015,08,29,10,22,20.90
2015,08,29,10,23,24.20
2015,08,29,10,24,27.40
2015,08,29,10,25,22.50
2015,08,29,10,26,17.70
2015,08,29,10,27,25.70
2015,08,29,10,28,25.70
2015,08,29,10,29,17.70
2015,08,29,10,30,16.10
2015,08,29,10,31,25.70
2015,08,29,10,32,14.50
2015,08,29,10,33,17.70
2015,08,29,10,34,16.10
2015,08,29,10,35,33.80
2015,08,29,10,36,30.60
2015,08,29,10,37,20.90
2015,08,29,10,38,30.60
2015,08,29,10,39,24.20
2015,08,29,10,40,20.90
2015,08,29,10,41,29.00
2015,08,29,10,42,30.60
2015,08,29,10,43,37.00
2015,08,29,10,44,24.20
2015,08,29,10,45,29.00
2015,08,29,10,46,25.70
2015,08,29,10,47,30.60
2015,08,29,10,48,45.10
2015,08,29,10,49,25.70
2015,08,29,10,50,16.10
2015,08,29,10,51,27.40
2015,08,29,10,52,35.40
2015,08,29,10,53,29.00
2015,08,29,10,54,29.00
2015,08,29,10,55,32.20
2015,08,29,10,56,25.70
2015,08,29,10,57,27.40
2015,08,29,10,58,29.00
2015,08,29,10,59,35.40
2015,08,29,11,00,29.00
2015,08,29,11,01,27.40
2015,08,29,11,02,32.20
2015,08,29,11,03,19.30
2015,08,29,11,04,27.40
2015,08,29,11,05,37.00
2015,08,29,11,06,25.70
2015,08,29,11,07,29.00
2015,08,29,11,08,20.90
2015,08,29,11,09,25.70
2015,08,29,11,10,29.00
2015,08,29,11,11,29.00
2015,08,29,11,12,29.00
2015,08,29,11,13,11.30
2015,08,29,11,14,24.20
2015,08,29,11,15,48.30
2015,08,29,11,16,29.00
2015,08,29,11,17,32.20
2015,08,29,11,18,25.70
2015,08,29,11,19,27.40
2015,08,29,11,20,24.20
2015,08,29,11,21,22.50
2015,08,29,11,22,25.70
2015,08,29,11,23,24.20
2015,08,29,11,24,32.20
2015,08,29,11,25,22.50
2015,08,29,11,26,20.90
2015,08,29,11,27,33.80
2015,08,29,11,28,32.20
2015,08,29,11,29,27.40
2015,08,29,11,30,17.70
2015,08,29,11,31,27.40
2015,08,29,11,32,19.30
2015,08,29,11,33,27.40
2015,08,29,11,34,25.70
2015,08,29,11,35,33.80
2015,08,29,11,36,25.70
2015,08,29,11,37,29.00
2015,08,29,11,38,29.00
2015,08,29,11,39,27.40
2015,08,29,11,40,32.20
2015,08,29,11,41,32.20
2015,08,29,11,42,29.00
2015,08,29,11,43,29.00
2015,08,29,11,44,25.70
2015,08,29,11,45,20.90
2015,08,29,11,46,19.30
2015,08,29,11,47,30.60
2015,08,29,11,48,16.10
2015,08,29,11,49,29.00
2015,08,29,11,50,30.60
2015,08,29,11,51,24.20
2015,08,29,11,52,24.20
2015,08,29,11,53,19.30
2015,08,29,11,54,17.70
2015,08,29,11,55,22.50
2015,08,29,11,56,20.90
2015,08,29,11,57,29.00
2015,08,29,11,58,27.40
2015,08,29,11,59,25.70
2015,08,29,12,00,22.50
2015,08,29,12,01,27.40
2015,08,29,12,02,27.40
2015,08,29,12,03,24.20
2015,08,29,12,04,25.70
2015,08,29,12,05,22.50
2015,08,29,12,06,32.20
2015,08,29,12,07,17.70
2015,08,29,12,08,17.70
2015,08,29,12,09,17.70
2015,08,29,12,10,27.40
2015,08,29,12,11,17.70
2015,08,29,12,12,19.30
2015,08,29,12,13,17.70
2015,08,29,12,14,22.50
2015,08,29,12,15,24.20
2015,08,29,12,16,22.50
2015,08,29,12,17,17.70
2015,08,29,12,18,19.30
2015,08,29,12,19,11.30
2015,08,29,12,20,9.60
2015,08,29,12,21,8.10
2015,08,29,12,22,6.40
2015,08,29,12,23,11.30
2015,08,29,12,24,11.30
2015,08,29,12,25,17.70
2015,08,29,12,26,16.10
2015,08,29,12,27,17.70
2015,08,29,12,28,11.30
2015,08,29,12,29,8.10
2015,08,29,12,30,8.10
2015,08,29,12,31,8.10
2015,08,29,12,32,14.50
2015,08,29,12,33,14.50
2015,08,29,12,34,16.10
2015,08,29,12,35,9.60
2015,08,29,12,36,9.60
2015,08,29,12,37,9.60
2015,08,29,12,38,9.60
2015,08,29,12,39,11.30
2015,08,29,12,40,17.70
2015,08,29,12,41,17.70
2015,08,29,12,42,16.10
2015,08,29,12,43,9.60
2015,08,29,12,44,16.10
2015,08,29,12,45,9.60
2015,08,29,12,46,8.10
2015,08,29,12,47,4.80
2015,08,29,12,48,14.50
2015,08,29,12,49,11.30
2015,08,29,12,50,9.60
2015,08,29,12,51,6.40
2015,08,29,12,52,9.60
2015,08,29,12,53,9.60
2015,08,29,12,54,9.60
2015,08,29,12,55,9.60
2015,08,29,12,56,6.40
2015,08,29,12,57,9.60
2015,08,29,12,58,8.10
2015,08,29,12,59,8.10
2015,08,29,13,00,6.40
2015,08,29,13,01,6.40
2015,08,29,13,02,6.40
2015,08,29,13,03,4.80
2015,08,29,13,04,3.20
2015,08,29,13,05,4.80
2015,08,29,13,06,6.40
2015,08,29,13,07,6.40
2015,08,29,13,08,8.10
2015,08,29,13,09,4.80
2015,08,29,13,10,8.10
2015,08,29,13,11,9.60
2015,08,29,13,12,6.40
2015,08,29,13,13,4.80
2015,08,29,13,14,8.10
2015,08,29,13,15,8.10
2015,08,29,13,16,8.10
2015,08,29,13,17,12.90
2015,08,29,13,18,8.10
2015,08,29,13,19,9.60
2015,08,29,13,20,9.60
2015,08,29,13,21,8.10
2015,08,29,13,22,8.10
2015,08,29,13,23,6.40
2015,08,29,13,24,9.60
2015,08,29,13,25,8.10
2015,08,29,13,26,6.40
2015,08,29,13,27,8.10
2015,08,29,13,28,9.60
2015,08,29,13,29,9.60
2015,08,29,13,30,11.30
2015,08,29,13,31,4.80
2015,08,29,13,32,8.10
2015,08,29,13,33,8.10
2015,08,29,13,34,8.10
2015,08,29,13,35,6.40
2015,08,29,13,36,8.10
2015,08,29,13,37,11.30
2015,08,29,13,38,14.50
2015,08,29,13,39,12.90
2015,08,29,13,40,9.60
2015,08,29,13,41,9.60
2015,08,29,13,42,9.60
2015,08,29,13,43,11.30
2015,08,29,13,44,9.60
2015,08,29,13,45,8.10
2015,08,29,13,46,9.60
2015,08,29,13,47,6.40
2015,08,29,13,48,6.40
2015,08,29,13,49,6.40
2015,08,29,13,50,6.40
2015,08,29,13,51,12.90
2015,08,29,13,52,9.60
2015,08,29,13,53,6.40
2015,08,29,13,54,25.70
2015,08,29,13,55,11.30
2015,08,29,13,56,8.10
2015,08,29,13,57,11.30
2015,08,29,13,58,16.10
2015,08,29,13,59,20.90
2015,08,29,14,00,17.70
2015,08,29,14,01,22.50
2015,08,29,14,02,14.50
2015,08,29,14,03,20.90
2015,08,29,14,04,20.90
2015,08,29,14,05,17.70
2015,08,29,14,06,19.30
2015,08,29,14,07,16.10
2015,08,29,14,08,24.20
2015,08,29,14,09,16.10
2015,08,29,14,10,8.10
2015,08,29,14,11,16.10
2015,08,29,14,12,29.00
2015,08,29,14,13,24.20
2015,08,29,14,14,19.30
2015,08,29,14,15,20.90
2015,08,29,14,16,24.20
2015,08,29,14,17,17.70
2015,08,29,14,18,24.20
2015,08,29,14,19,17.70
2015,08,29,14,20,29.00
2015,08,29,14,21,17.70
2015,08,29,14,22,19.30
2015,08,29,14,23,43.50
2015,08,29,14,24,25.70
2015,08,29,14,25,17.70
2015,08,29,14,26,12.90
2015,08,29,14,27,20.90
2015,08,29,14,28,20.90
2015,08,29,14,29,11.30
2015,08,29,14,30,24.20
2015,08,29,14,31,20.90
2015,08,29,14,32,32.20
2015,08,29,14,33,20.90
2015,08,29,14,34,32.20
2015,08,29,14,35,16.10
2015,08,29,14,36,24.20
2015,08,29,14,37,11.30
2015,08,29,14,38,17.70
2015,08,29,14,39,20.90
2015,08,29,14,40,14.50
2015,08,29,14,41,29.00
2015,08,29,14,42,20.90
2015,08,29,14,43,16.10
2015,08,29,14,44,11.30
2015,08,29,14,45,9.60
2015,08,29,14,46,20.90
2015,08,29,14,47,9.60
2015,08,29,14,48,16.10
2015,08,29,14,49,11.30
2015,08,29,14,50,19.30
2015,08,29,14,51,14.50
2015,08,29,14,52,16.10
2015,08,29,14,53,16.10
2015,08,29,14,54,6.40
2015,08,29,14,55,8.10
2015,08,29,14,56,16.10
2015,08,29,14,57,22.50
2015,08,29,14,58,22.50
2015,08,29,14,59,6.40
2015,08,29,15,00,9.60
2015,08,29,15,01,24.20
2015,08,29,15,02,17.70
2015,08,29,15,03,19.30
2015,08,29,15,04,11.30
2015,08,29,15,05,12.90
2015,08,29,15,06,14.50
2015,08,29,15,07,11.30
2015,08,29,15,08,8.10
2015,08,29,15,09,4.80
2015,08,29,15,10,6.40
2015,08,29,15,11,17.70
2015,08,29,15,12,11.30
2015,08,29,15,13,16.10
2015,08,29,15,14,11.30
2015,08,29,15,15,3.20
2015,08,29,15,16,3.20
2015,08,29,15,17,8.10
2015,08,29,15,18,6.40
2015,08,29,15,19,6.40
2015,08,29,15,20,4.80
2015,08,29,15,21,4.80
2015,08,29,15,22,4.80
2015,08,29,15,23,4.80
2015,08,29,15,24,4.80
2015,08,29,15,25,4.80
2015,08,29,15,26,6.40
2015,08,29,15,27,6.40
2015,08,29,15,28,9.60
2015,08,29,15,29,8.10
2015,08,29,15,30,3.20
2015,08,29,15,31,19.30
2015,08,29,15,32,6.40
2015,08,29,15,33,6.40
2015,08,29,15,34,6.40
2015,08,29,15,35,9.60
2015,08,29,15,36,8.10
2015,08,29,15,37,4.80
2015,08,29,15,38,11.30
2015,08,29,15,39,11.30
2015,08,29,15,40,12.90
2015,08,29,15,41,3.20
2015,08,29,15,42,9.60
2015,08,29,15,43,3.20
2015,08,29,15,44,4.80
2015,08,29,15,45,6.40
2015,08,29,15,46,6.40
2015,08,29,15,47,4.80
2015,08,29,15,48,17.70
2015,08,29,15,49,8.10
2015,08,29,15,50,8.10
2015,08,29,15,51,11.30
2015,08,29,15,52,11.30
2015,08,29,15,53,11.30
2015,08,29,15,54,9.60
2015,08,29,15,55,9.60
2015,08,29,15,56,6.40
2015,08,29,15,57,4.80
2015,08,29,15,58,4.80
2015,08,29,15,59,6.40
2015,08,29,16,00,6.40
2015,08,29,16,01,4.80
2015,08,29,16,02,4.80
2015,08,29,16,03,4.80
2015,08,29,16,04,4.80
2015,08,29,16,05,3.20
2015,08,29,16,06,3.20
2015,08,29,16,07,6.40
2015,08,29,16,08,4.80
2015,08,29,16,09,4.80
2015,08,29,16,10,3.20
2015,08,29,16,11,3.20
2015,08,29,16,12,3.20
2015,08,29,16,13,6.40
2015,08,29,16,14,8.10
2015,08,29,16,15,6.40
2015,08,29,16,16,4.80
2015,08,29,16,17,6.40
2015,08,29,16,18,6.40
2015,08,29,16,19,3.20
2015,08,29,16,20,8.10
2015,08,29,16,21,9.60
2015,08,29,16,22,9.60
2015,08,29,16,23,8.10
2015,08,29,16,24,3.20
2015,08,29,16,25,6.40
2015,08,29,16,26,4.80
2015,08,29,16,27,6.40
2015,08,29,16,28,6.40
2015,08,29,16,29,4.80
2015,08,29,16,30,3.20
2015,08,29,16,31,4.80
2015,08,29,16,32,4.80
2015,08,29,16,33,8.10
2015,08,29,16,34,8.10
2015,08,29,16,35,6.40
2015,08,29,16,36,8.10
2015,08,29,16,37,4.80
2015,08,29,16,38,4.80
2015,08,29,16,39,6.40
2015,08,29,16,40,6.40
2015,08,29,16,41,4.80
2015,08,29,16,42,4.80
2015,08,29,16,43,6.40
2015,08,29,16,44,4.80
2015,08,29,16,45,3.20
2015,08,29,16,46,4.80
2015,08,29,16,47,3.20
2015,08,29,16,48,6.40
2015,08,29,16,49,8.10
2015,08,29,16,50,6.40
2015,08,29,16,51,1.60
2015,08,29,16,52,1.60
2015,08,29,16,53,1.60
2015,08,29,16,54,6.40
2015,08,29,16,55,4.80
2015,08,29,16,56,4.80
2015,08,29,16,57,4.80
2015,08,29,16,58,3.20
2015,08,29,16,59,1.60
2015,08,29,17,00,3.20
2015,08,29,17,01,3.20
2015,08,29,17,02,1.60
2015,08,29,17,03,3.20
2015,08,29,17,05,1.60
2015,08,29,17,06,3.20
2015,08,29,17,07,3.20
2015,08,29,17,08,3.20
2015,08,29,17,09,3.20
2015,08,29,17,10,1.60
2015,08,29,17,12,1.60
2015,08,29,17,13,3.20
2015,08,29,17,14,1.60
2015,08,29,17,16,1.60
2015,08,29,17,19,1.60
2015,08,29,17,20,1.60
2015,08,29,17,21,3.20
2015,08,29,17,22,1.60
2015,08,29,17,23,1.60
2015,08,29,17,24,1.60
2015,08,29,17,25,1.60
2015,08,29,17,26,1.60
2015,08,29,17,27,1.60
2015,08,29,17,29,1.60
2015,08,29,17,30,3.20
2015,08,29,17,31,1.60
2015,08,29,17,33,1.60
2015,08,29,17,34,1.60
2015,08,29,17,36,3.20
2015,08,29,17,37,3.20
2015,08,29,17,38,1.60
2015,08,29,17,40,1.60
2015,08,29,17,41,1.60
2015,08,29,17,42,1.60
2015,08,29,17,43,3.20
2015,08,29,17,44,3.20
2015,08,29,17,45,3.20
2015,08,29,17,46,3.20
2015,08,29,17,47,1.60
2015,08,29,17,48,1.60
2015,08,29,17,51,1.60
2015,08,29,17,54,3.20
2015,08,29,17,55,3.20
2015,08,29,17,56,3.20
2015,08,29,17,57,1.60
2015,08,29,17,58,1.60
2015,08,29,18,00,1.60
2015,08,29,18,01,3.20
2015,08,29,18,02,3.20
2015,08,29,18,03,1.60
2015,08,29,18,04,1.60
2015,08,29,18,05,3.20
2015,08,29,18,06,3.20
2015,08,29,18,07,3.20
2015,08,29,18,08,1.60
2015,08,29,18,09,1.60
2015,08,29,18,10,1.60
2015,08,29,18,11,4.80
2015,08,29,18,12,4.80
2015,08,29,18,13,3.20
2015,08,29,18,15,1.60
2015,08,29,18,16,3.20
2015,08,29,18,17,1.60
2015,08,29,18,18,1.60
2015,08,29,18,19,3.20
2015,08,29,18,20,6.40
2015,08,29,18,21,6.40
2015,08,29,18,22,4.80
2015,08,29,18,23,3.20
2015,08,29,18,24,3.20
2015,08,29,18,25,3.20
2015,08,29,18,26,3.20
2015,08,29,18,27,3.20
2015,08,29,18,28,3.20
2015,08,29,18,29,3.20
2015,08,29,18,30,4.80
2015,08,29,18,31,4.80
2015,08,29,18,32,3.20
2015,08,29,18,33,3.20
2015,08,29,18,34,4.80
2015,08,29,18,35,3.20
2015,08,29,18,36,3.20
2015,08,29,18,37,4.80
2015,08,29,18,38,4.80
2015,08,29,18,39,1.60
2015,08,29,18,40,3.20
2015,08,29,18,41,3.20
2015,08,29,18,42,3.20
2015,08,29,18,43,1.60
2015,08,29,18,44,1.60
2015,08,29,18,48,1.60
2015,08,29,18,49,1.60
2015,08,29,18,50,3.20
2015,08,29,18,51,1.60
2015,08,29,18,52,3.20
2015,08,29,18,53,3.20
2015,08,29,18,54,6.40